Weather in Cheptsa

Russia / Udmurt Republic     57°53′22″N   53°24′18″E
temp.,
°C
wind,
m/s
gust,
m/s
humid.,
%
clouds,
%
prec.,
mm/h
press.,
hPa
HPBL,
m
10 may, mon
mon1001:00+12ese226916 0.0 101713
04:00+11se22695 0.0 101820
07:00+15sse265985 0.0 1019185
10:00+16s2561100 0.0 1021184
13:00+23sw2433100 0.0 10212437
16:00+22wnw223991 0.0 10211204
19:00+19nne2258100 0.0 102231
22:00+15n31076100 0.3 1024321
11 may, tue
tue1101:00+13nw238599 0.0 102552
04:00+12nne2688100 0.0 1026129
07:00+15ene368362 0.0 1027270
10:00+19n216383 0.0 1028890
13:00+22n225211 0.1 10281342
16:00+23nnw344532 0.2 10271798
19:00+19ne24625 0.0 1028151
22:00+14ene228135 0.0 102941
12 may, wed
wed1201:00+12ne22859 0.0 103029
04:00+11ene228880 0.0 103044
07:00+15ene23705 0.0 1031219
10:00+20e21530 0.0 1031896
13:00+24sw12430 0.0 10291652
16:00+24wnw23370 0.0 10292151
19:00+21n12526 0.0 102822
22:00+16n11637 0.0 102911
13 may, thu
thu1301:00+14ene117014 0.0 102910
04:00+13ne11736 0.0 102911
07:00+18ene11611 0.0 1029125
10:00+24ssw01440 0.0 1029787
13:00+27sw123464 0.0 10272463
16:00+26sw223357 0.0 10262467
19:00+22s2249100 0.0 102545
22:00+18w226249 0.0 102635
14 may, fri
fri1401:00+15sw116140 0.0 102611
04:00+14sw116339 0.0 102610
07:00+18ssw23546 0.0 1026157
10:00+24sw243984 0.0 1025969
13:00+26sw35316 0.0 10242032
16:00+26wsw452995 0.0 10232038
19:00+22wsw235098 0.0 102277
22:00+17sw236473 0.0 102253